Regional Weather Roundup
Issued by NWS Mobile, AL

Home | Current Version | Previous Version | Text Only | Print | Product List | Glossary On
Versions: 1 2 3 4 5 6 7 8 9 10 11 12 13 14 15 16 17 18 19 20 21 22 23 24 25 26 27
000
ASUS44 KMOB 281812
RWRMOB
REGIONAL WEATHER ROUNDUP
NATIONAL WEATHER SERVICE MOBILE AL
100 PM CDT FRI APR 28 2017

NOTE: "FAIR" INDICATES FEW OR NO CLOUDS BELOW 12,000 FEET WITH NO
      SIGNIFICANT WEATHER AND/OR OBSTRUCTIONS TO VISIBILITY.

  * THESE STATIONS ARE PART OF THE UNIVERSITY OF SOUTH ALABAMA
    MESONET AND ARE NOT UNDER NWS OR FAA QUALITY CONTROL.

ALZ061>064-281900-
COASTAL ALABAMA

CITY           SKY/WX    TMP DP  RH WIND       PRES   REMARKS
MOBILE REG APT CLOUDY    83  72  69 S15G25    29.98S
6HR MIN TEMP:  77; 6HR MAX TEMP:  83;

BROOKLEY FIELD CLOUDY    81  76  84 SE15      29.99S
6HR MIN TEMP:  78; 6HR MAX TEMP:  83;

USA CAMPUS*      N/A     82  73  74 SE8       29.98S
DOG RIVER*       N/A     79  75  89 SE17      30.72S


CITY           SKY/WX    TMP DP  RH WIND       PRES   REMARKS
GULF SHORES    CLOUDY    79  77  95 SE15G28   29.99S

$$

ALZ051>060-281900-
INTERIOR SOUTHWEST AND SOUTH CENTRAL ALABAMA

CITY           SKY/WX    TMP DP  RH WIND       PRES   REMARKS
GREENVILLE     MOSUNNY   86  66  51 S12G23    29.98S
6HR MIN TEMP:  73; 6HR MAX TEMP:  86;

EVERGREEN      MOSUNNY   87  69  54 S17G25    29.98S
6HR MIN TEMP:  73; 6HR MAX TEMP:  87; 6HR PCP: TRACE;

ATMORE*          N/A     84  72  65 S16       29.99S
ANDALUSIA/OPP  PTSUNNY   87  69  54 S8G21     30.00S
6HR MIN TEMP:  75; 6HR MAX TEMP:  89;

ANDALUSIA*       N/A     84  70  61 S15       30.01S
FLORALA APT    LGT RAIN  85  68  56 S16G23    30.02F
6HR MIN TEMP:  74; 6HR MAX TEMP:  86; 6HR PCP: TRACE;

FLORALA*         N/A     84  72  65 CALM      30.71F

$$

FLZ001>006-281900-
WESTERN FLORIDA PANHANDLE

CITY           SKY/WX    TMP DP  RH WIND       PRES   REMARKS
PENSACOLA      CLOUDY    81  73  76 SE15      30.00S
6HR MIN TEMP:  77; 6HR MAX TEMP:  83;

NAS PENSACOLA  PTSUNNY   82  73  74 SE15      29.99S
6HR MIN TEMP:  76; 6HR MAX TEMP:  82;

MILTON         PTSUNNY   82  73  74 S16       30.00S
6HR MIN TEMP:  75; 6HR MAX TEMP:  83;

WHTNG S FIELD  CLOUDY    84  74  71 S14G26    30.00S
6HR MIN TEMP:  78; 6HR MAX TEMP:  85;



CITY           SKY/WX    TMP DP  RH WIND       PRES   REMARKS
JAY*             N/A     82  70  65 S17       29.99S
DUKE FIELD     PTSUNNY   84  71  65 S18G25    30.01R
CRESTVIEW      CLOUDY    82  71  69 S13       30.02F
6HR MIN TEMP:  75; 6HR MAX TEMP:  83;

VALPARAISO     PTSUNNY   82  73  72 SE17      30.01F
6HR MIN TEMP:  74; 6HR MAX TEMP:  82;

DESTIN         PTSUNNY   82  78  88 SE13      30.02R
6HR MIN TEMP:  77; 6HR MAX TEMP:  83;


$$

MSZ076-079-281900-
INTERIOR SOUTHEAST MISSISSIPPI

CITY           SKY/WX    TMP DP  RH WIND       PRES   REMARKS
LEAKESVILLE*   NOT AVBL
AGRICOLA*        N/A     81  73  78 SW3       29.95S

$$

MARINE OBSERVATIONS

STATION/POSITION TIME  TEMP    WIND        PRES    WAVE
                       AIR SEA DIR/SP/G            HT/PER
                 (UTC) (F)     (DEG/KT/KT) (MB)    (FT/S)
PASCAGOULA       1748   78     140/ 12/ 16 1014.6R
PETIT BOIS ISLND 1748   77     140/ 11/ 14 1015.5R
GRAND BAY        1645   77     140/ 14     1015.0S
KATRINA CUT      1730   77     140/ 16     1014.6S
CEDAR POINT      1730   78     140/ 14     1014.9S
E DAUPHIN ISLAND 1700   76     130/ 14/ 15 1014.6R
MIDDLE BAY LIGHT 1730   77     140/ 18     1014.9F
USCG MOBILE BAY  1748   78 76  170/ 10/ 16 1015.7F
STATE DOCKS      1748   79 76              1015.3S
MEAHER PARK      1730   79     170/ 16     1014.9R
FORT MORGAN      1748   78     140/ 17/ 19   N/A
12 S ORANGE BCH  1750   76 75  130/ 14/ 17 1014.8S   4/ 7
PENSACOLA BAY    1748   79 76  170/  9/ 12 1016.2S
64 S DAUPHIN ISL 1800   77 76  140/ 16/ 17 1014.3
67 S FORT MORGAN 1730   76     160/ 17     1014.6S

$$

SELECTED LOCATIONS ACROSS THE REGION

CITY           SKY/WX    TMP DP  RH WIND       PRES   REMARKS
NEW ORLEANS    CLOUDY    84  74  71 S15G26    29.89S
GULFPORT       CLOUDY    82  75  79 SE18G26   29.94S
PASCAGOULA AP  CLOUDY    82  74  76 S13G23    29.96S
PASCAGOULA*    NOT AVBL
HATTIESBURG    CLOUDY    85  71  63 S18G30    29.92S
LAUREL         PTSUNNY   84  72  65 S23G29    29.92F
MERIDIAN       MOSUNNY   88  70  55 S23G33    29.90S
JACKSON        MOSUNNY   88  70  55 S29G36    29.83F
MONTGOMERY     PTSUNNY   86  66  51 S13G22    29.98F
TROY           PTSUNNY   84  69  60 S9G21     30.01S
ASHFORD*         N/A     84  70  61 S15       30.01S
DOTHAN         MOSUNNY   88  69  53 S18G24    30.05F
PANAMA CITY    MOSUNNY   82  71  69 S13G24    30.03S

$$





USA.gov is the U.S. government's official web portal to all federal, state and local government web resources and services.